Ketchikan, AK

11:16 PM AKST on December 15, 2018 (GMT -0900)
Ketchikan International

Weather History for PAKT - September, 2018

Change the Weather History Date:

Saturday, September 29, 2018

  Actual Average Record
Temperature  
Mean Temperature 56 °F -  
Max Temperature 66 °F 56 °F 66 °F (2008)
Min Temperature 43 °F 44 °F 33 °F (1999)
Degree Days  
Heating Degree Days 9    
Growing Degree Days 6 (Base 50)    
Moisture  
Dew Point 36 °F    
Average Humidity 53    
Maximum Humidity 83    
Minimum Humidity 24    
Precipitation  
Precipitation 0.00 in - - ()
Sea Level Pressure  
Sea Level Pressure 30.00 in    
Wind  
Wind Speed 6 mph (NNW)    
Max Wind Speed 12 mph    
Max Gust Speed 21 mph    
Visibility 10 miles    
Events      
Averages and records for this station are not official NWS values.
T = Trace of Precipitation, MM = Missing Value Source: NWS Daily Summary

Daily Weather History Graph

Daily Weather History Graph

Search for Another Location

Airport or City:

Astronomy

Sep. 29, 2018 Rise Set
Actual Time 6:46 AM AKDT 6:27 PM AKDT
Civil Twilight 6:09 AM AKDT 7:03 PM AKDT
Nautical Twilight 5:26 AM AKDT 7:45 PM AKDT
Astronomical Twilight 4:42 AM AKDT 8:30 PM AKDT
Moon 8:53 PM AKDT (9/29) 12:03 PM AKDT (9/29)
Length of Visible Light 12h 53m
Length of Day
11h 40m
Waning Gibbous, 77% of the Moon is Illuminated
Sep 29
Waning Gibbous
Oct 2
Last Quarter
Oct 8
New
Oct 16
First Quarter
Oct 24
Full

Hourly Weather History & Observations

Time (AKDT) Temp. Windchill Dew Point Humidity Pressure Visibility Wind Dir Wind Speed Gust Speed Precip Events Conditions
12:53 AM 52.0 °F - 46.9 °F 83% 30.03 in 10.0 mi NW 9.2 mph - N/A   Clear
1:53 AM 51.1 °F - 46.0 °F 83% 30.04 in 10.0 mi NW 10.4 mph - N/A   Clear
2:53 AM 51.1 °F - 45.0 °F 80% 30.04 in 10.0 mi NW 9.2 mph - N/A   Clear
3:53 AM 50.0 °F - 45.0 °F 83% 30.04 in 10.0 mi WNW 6.9 mph - N/A   Clear
4:53 AM 48.9 °F - 44.1 °F 83% 30.04 in 10.0 mi NW 4.6 mph - N/A   Clear
5:53 AM 48.9 °F - 42.1 °F 77% 30.05 in 10.0 mi West 3.5 mph - N/A   Clear
6:12 AM 48.0 °F - 42.1 °F 80% 30.04 in 10.0 mi WNW 4.6 mph - N/A   Clear
6:53 AM 50.0 °F - 37.4 °F 62% 30.04 in 10.0 mi Variable 3.5 mph - N/A   Clear
7:53 AM 50.0 °F - 41.0 °F 71% 30.05 in 10.0 mi WNW 4.6 mph - N/A   Clear
8:53 AM 53.6 °F - 44.6 °F 72% 30.04 in 10.0 mi North 3.5 mph - N/A   Clear
9:53 AM 62.6 °F - 35.6 °F 37% 30.04 in 10.0 mi WNW 3.5 mph - N/A   Clear
10:53 AM 64.4 °F - 28.4 °F 26% 30.03 in 10.0 mi ESE 6.9 mph - N/A   Clear
11:53 AM 64.4 °F - 28.4 °F 26% 30.02 in 10.0 mi Variable 6.9 mph 17.3 mph N/A   Clear
12:53 PM 64.4 °F - 28.4 °F 26% 30.00 in 10.0 mi SE 11.5 mph 20.7 mph N/A   Clear
1:53 PM 66.2 °F - 28.4 °F 24% 29.99 in 10.0 mi Variable 4.6 mph - N/A   Clear
2:53 PM 66.2 °F - 28.4 °F 24% 29.98 in 10.0 mi NE 10.4 mph 17.3 mph N/A   Clear
3:53 PM 66.2 °F - 28.4 °F 24% 29.97 in 10.0 mi NE 10.4 mph - N/A   Clear
4:53 PM 64.0 °F - 28.0 °F 26% 29.96 in 10.0 mi ENE 4.6 mph - N/A   Clear
5:53 PM 62.6 °F - 28.4 °F 27% 29.96 in 10.0 mi ENE 6.9 mph - N/A   Clear
6:53 PM 53.6 °F - 33.8 °F 47% 29.96 in 10.0 mi Calm Calm - N/A   Clear
7:53 PM 51.8 °F - 33.8 °F 50% 29.96 in 10.0 mi Calm Calm - N/A   Clear
8:53 PM 48.2 °F - 30.2 °F 50% 29.96 in 10.0 mi SW 3.5 mph - N/A   Clear
9:53 PM 48.9 °F - 32.0 °F 52% 29.96 in 10.0 mi Calm Calm - N/A   Clear
10:53 PM 46.0 °F 44.8 °F 30.9 °F 56% 29.96 in 10.0 mi Variable 3.5 mph - N/A   Clear
11:53 PM 43.0 °F - 33.1 °F 68% 29.96 in 10.0 mi Calm Calm - N/A   Clear